Regional Weather Roundup
Issued by NWS

Home | Current Version | Previous Version | Graphics & Text | Print | Product List | Glossary On
Versions: 1 2 3 4 5 6 7 8 9 10 11 12 13 14 15 16 17 18 19 20 21 22 23 24 25 26 27 28 29 30 31 32 33 34 35 36 37 38 39 40 41 42 43 44 45 46 47 48 49 50
000
ASUS43 KDTX 251010
RWRMI
MICHIGAN HOURLY REGIONAL WEATHER ROUNDUP
NATIONAL WEATHER SERVICE DETROIT/PONTIAC MI
600 AM EDT MON MAY 25 2015

NOTE: "FAIR" INDICATES FEW OR NO CLOUDS BELOW 12,000 FEET WITH NO
SIGNIFICANT WEATHER AND/OR OBSTRUCTION TO VISIBILITY.

MIZ047>049-052>055-059>063-066>070-074>076-081>083-251100-
SOUTHEAST LOWER MICHIGAN

CITY           SKY/WX    TMP DP  RH WIND       PRES   REMARKS
ADRIAN         MOCLDY    66  52  60 S9        30.01S
ALMA           CLEAR     64  57  76 S5        29.93F
ANN ARBOR      PTCLDY    63  52  67 S5        30.00F
BAD AXE        MOCLDY    60  50  69 SE6       29.97F
CARO           MOCLDY    63  54  72 S5        29.95F
DETROIT CITY   CLEAR     66  53  63 S7        30.01F
DETROIT        MOCLDY    66  53  63 SE6       30.01F
FLINT          CLEAR     69  53  56 S9        29.97F
GROSSE ILE     CLEAR     61  57  88 S6        30.01S
HILLSDALE      PTCLDY    68  55  63 S7        30.00S
HOWELL         CLEAR     63  52  67 SE6       29.98S

CITY           SKY/WX    TMP DP  RH WIND       PRES   REMARKS
JACKSON        PTCLDY    69  55  60 S12       29.98S
LAMBERTVILLE   PTCLDY    68  52  56 S6        30.02S
LANSING        CLEAR     67  55  65 S10       29.95F
LAPEER         FAIR      66  51  58 S8        29.99S
MASON          CLEAR     66  55  68 S5        29.96F
MONROE         PTCLDY    66  54  63 S7        30.00S
MT. CLEMENS    CLEAR     61  55  82 S8        29.99F
PONTIAC        PTCLDY    65  52  62 S6        30.00S
PORT HOPE        N/A     57  50  77 SE8       29.95F
PORT HURON     FAIR      63  55  77 S6        30.02S
TRI CITIES     PTCLDY    67  54  63 S9        29.93F
MIDLAND        FAIR      63  54  73 SE3       29.92S
TROY           CLEAR     67  52  58 S5        30.02F
SAGINAW HB     PTCLDY    66  54  63 S9        29.93F
$$
MIZ043>046-050>051-056>058-064>065-071>073-077>080-251100-
SOUTHWEST LOWER MICHIGAN

CITY           SKY/WX    TMP DP  RH WIND       PRES   REMARKS
BATTLE CREEK   MOCLDY    72  58  61 S17       29.95S
BENTON HARBOR  CLOUDY    71  60  68 S10G18    29.90S
BIG RAPIDS     MOCLDY    58  55  89 CALM      29.90S
COLDWATER      MOCLDY    69  56  61 S7        29.96S
FREMONT        FAIR      61  59  91 CALM      29.88S
HOLLAND        CLOUDY    71  59  65 S10       29.90S
GRAND RAPIDS   CLOUDY    70  58  65 S14       29.91F
IONIA          FAIR      65  56  73 S8        29.92S
KALAMAZOO      MOCLDY    70  57  63 S13       29.94S
LUDINGTON      CLOUDY    61  58  91 CALM      29.86F
MARSHALL       PTCLDY    70  57  63 S9        29.96R
MOUNT PLEASANT PTCLDY    57  56  96 CALM      29.91F FOG
MUSKEGON       CLOUDY    73  59  61 S16G26    29.87F
SOUTH HAVEN    CLOUDY    71  59  67 S9        29.90S
$$
MIZ016>042-251100-
NORTHERN LOWER MICHIGAN

CITY           SKY/WX    TMP DP  RH WIND       PRES   REMARKS
ALPENA         LGT RAIN  54  53  97 SE12      29.95F
BEAVER ISLAND  LGT RAIN  55  55  98 E10       29.90F
BELLAIRE       RAIN      61  58  91 SE3       29.89F
CADILLAC       CLOUDY    58  57  94 CALM      29.90S
CHARLEVOIX     LGT RAIN  59  59 100 E8        29.91F
FRANKFORT      CLOUDY    64  58  81 SE3       29.85F
GAYLORD        RAIN      58  58 100 S3        29.93F FOG
GRAYLING       RAIN      57  55  94 NE3       29.93F
HARBOR SPRINGS HVY RAIN  58  57  97 E7        29.91F
HOUGHTON LAKE  CLOUDY    57  55  93 E6        29.92F
MANISTEE       CLOUDY    61  55  82 E7        29.87F
OSCODA         CLOUDY    51  50  95 E8        29.96F
PELLSTON       RAIN      59  57  93 E10       29.92F FOG
ROGERS CITY    LGT RAIN  54  54  99 E6        29.98S
TRAVERSE CITY  LGT RAIN  60  58  92 SE7       29.87F
$$
MIZ007>008-015-251100-
EASTERN UPPER MICHIGAN

CITY           SKY/WX    TMP DP  RH WIND       PRES   REMARKS
KINROSS        CLOUDY    54  54 100 E12       29.96S
MACKINAC ISLAN LGT RAIN  48  48 100 E9        29.94F VSB 3/4
NEWBERRY       LGT RAIN  54  54  99 E6        29.92F
S. S. MARIE    LGT RAIN  54  53  97 E3        29.97F FOG
MUNISING         N/A     54  52  93 CALM      29.88F
$$
MIZ004>006-011>014-085-251100-
CENTRAL UPPER MICHIGAN

CITY           SKY/WX    TMP DP  RH WIND       PRES   REMARKS
MANISTIQUE     LGT RAIN  55  54  95 E7        29.88F
ESCANABA       CLOUDY    55  52  88 E9        29.85F
MENOMINEE      CLOUDY    54  50  87 E6        29.82F VSB 3/4
SAWYER-GWINN   RAIN      55  54  94 E7        29.87F
$$
MIZ001>003-009>011-084-251100-
WESTERN UPPER MICHIGAN

CITY           SKY/WX    TMP DP  RH WIND       PRES   REMARKS
IRON MOUNTAIN  LGT RAIN  56  54  93 E9        29.83F
HOUGHTON       LGT RAIN  57  54  89 E7        29.86F
COPPER HARBOR    N/A     51  49  92 CALM      29.88F
IRONWOOD       CLOUDY    57  55  94 E10       29.75F
$$

ABBREVIATIONS USED IN REMARKS
   TC - TEMPERATURE IN CELSIUS
  WCI - WIND CHILL INDEX
   HX - HEAT INDEX
  VSB - VISIBILITY




USA.gov is the U.S. government's official web portal to all federal, state and local government web resources and services.